Simultaneous Nadir Overpasses (SNOs) Predictions

Prediction of SNOs between METOP-B and TERRA Satellite Orbit:

Table of predicted SNOs for the next 14.0 days since TLE Epoch: 1/30/2016
Index Date (METOP-B) Time (METOP-B) Lat,Lon (METOP-B) SZA (METOP-B ) Date (TERRA) Time (TERRA) Lat,Lon (TERRA) SZA (TERRA ) Distance(km) Time Diff (sec)
1 01/31/2016 22:32:53 -81.35, 69.71 78.95 01/31/2016 22:32:59 -81.35, 69.85 78.94 2.34 6
2 01/31/2016 23:23:32 81.36,-122.26 101.12 01/31/2016 23:22:25 81.36,-122.37 101.08 1.78 67
3 02/03/2016 18:07:11 -81.35, 136.19 79.76 02/03/2016 18:07:14 -81.34, 136.08 79.78 2.10 3
4 02/03/2016 18:57:51 81.35, -56.18 100.27 02/03/2016 18:56:40 81.35, -56.16 100.23 0.74 71
5 02/06/2016 12:50:49 81.35, 35.05 99.38 02/06/2016 12:52:01 81.35, 35.07 99.42 0.58 72
6 02/06/2016 13:41:29 -81.35,-157.32 80.60 02/06/2016 13:41:28 -81.35,-157.36 80.61 0.83 1
7 02/06/2016 14:31:42 81.33, 21.00 100.61 02/06/2016 14:30:29 81.73, 20.44 100.75 45.88 73
8 02/09/2016 08:25:06 81.35, 101.53 98.51 02/09/2016 08:26:14 81.35, 101.54 98.54 0.58 68
9 02/09/2016 09:15:46 -81.35, -90.83 81.48 02/09/2016 09:15:41 -81.35, -90.87 81.48 0.70 5
10 02/12/2016 03:59:24 81.35, 168.01 97.60 02/12/2016 04:00:28 81.35, 167.95 97.63 1.05 64




NCC Satellite Simultaneous Nadir Overpasses (SNOs) Prediction Service
